Theta_e
317 316 314 312 311 311 311 311 313 316 315 319 319 318 321 320 317 318 317 316 315 315 315 315 315 315 315 316 316 314 314 314 313 314 315 315 314 314 316 317 318 320 320 321 325 330 332 333 333 334 334 334 334 334 334 335 335 336 336 335 335 335 334 334 334 335 336 335 334 334 334 334 335 335 335 335 335 334 334 334 333 333 333 332 331 331
316 315 313 311 311 311 311 312 312 312 312 316 318 316 318 321 318 316 316 315 314 315 315 314 314 314 315 316 315 314 313 314 314 314 315 316 315 314 315 316 316 317 318 318 321 326 330 332 333 333 334 333 334 334 334 334 334 334 335 335 335 334 334 334 333 334 335 335 334 333 333 334 334 334 334 334 334 334 334 334 333 333 333 333 332 332
315 314 312 310 311 311 311 312 312 312 311 314 318 317 318 321 319 314 315 316 315 314 315 316 314 315 317 315 315 314 314 314 313 314 315 316 318 316 316 317 316 319 324 322 320 323 328 331 332 333 334 334 333 334 334 334 334 333 334 334 334 334 334 334 333 333 333 334 334 333 331 332 333 333 333 333 332 332 333 333 333 333 333 333 332 332
315 313 311 311 311 311 311 311 312 312 312 316 319 317 317 320 319 315 314 315 315 314 314 317 317 316 316 316 317 314 313 314 313 313 315 316 318 317 317 317 318 323 327 325 322 321 323 329 332 332 333 334 334 335 335 335 335 334 334 334 333 334 333 333 333 332 332 332 333 333 331 330 330 330 330 330 331 331 332 332 332 333 333 333 332 332
314 312 310 311 311 311 311 311 313 312 312 318 320 317 318 320 320 317 315 315 314 313 314 316 316 318 319 315 317 316 312 313 314 314 314 315 317 317 317 317 318 324 326 324 324 319 317 322 328 331 333 334 334 335 336 335 335 335 335 334 334 334 334 333 333 333 333 332 332 332 332 331 330 331 330 330 331 331 331 331 332 332 332 333 332 331
313 312 311 312 311 312 311 311 315 315 314 317 320 321 319 317 320 319 316 316 314 314 318 314 312 325 330 317 313 314 312 313 314 315 315 316 319 319 319 321 321 322 322 320 320 316 313 316 321 325 327 330 332 333 335 335 335 335 335 335 334 334 334 334 333 333 333 333 332 332 332 332 332 331 331 331 331 331 331 331 331 332 332 332 332 330
314 311 311 313 313 314 314 313 317 319 316 315 318 322 318 317 323 320 316 319 318 316 317 313 312 323 327 319 316 314 312 314 316 317 317 316 319 321 321 324 323 321 320 319 318 314 311 312 314 315 318 323 327 329 331 332 333 334 334 335 335 334 334 334 334 333 333 333 333 332 332 332 332 331 331 331 331 331 331 331 331 331 331 331 331 330
314 311 312 315 315 315 314 313 316 317 316 319 321 320 318 318 323 319 316 324 326 319 314 315 317 315 315 320 321 315 312 314 315 317 318 315 317 319 321 325 327 326 326 324 324 319 311 310 311 312 313 314 317 321 323 325 328 330 331 333 334 334 334 335 334 334 333 333 333 332 332 332 332 331 331 331 331 331 330 330 330 330 330 330 330 330
315 314 315 317 316 315 315 316 322 319 314 321 323 320 319 318 320 320 319 326 327 319 315 318 316 312 321 329 320 313 313 313 315 316 316 316 318 321 325 329 332 333 331 330 329 320 311 309 311 312 312 312 312 313 314 317 323 326 327 329 331 332 333 333 334 334 333 332 332 333 332 332 332 331 331 330 330 330 329 329 329 328 329 329 329 329
317 314 314 317 317 317 318 320 326 324 314 319 323 322 322 321 321 320 324 328 320 315 321 323 315 310 324 334 318 310 314 314 314 315 313 315 319 323 327 330 330 328 327 330 326 315 311 313 313 312 312 312 312 311 311 313 319 323 325 327 328 330 331 332 332 333 332 332 332 332 332 331 331 331 330 329 329 328 328 328 328 328 327 328 327 327
315 312 313 316 316 318 319 318 322 325 318 320 324 323 322 325 330 332 336 333 317 318 332 328 318 311 316 329 323 313 316 316 314 314 315 317 320 324 326 327 327 325 324 327 323 313 312 315 314 313 313 313 312 312 311 312 315 319 322 325 327 328 329 330 331 331 331 331 331 331 331 330 330 329 328 328 328 328 327 327 327 327 327 327 326 326
315 317 318 316 314 314 318 318 319 322 321 325 328 322 318 323 332 335 332 323 316 325 332 322 317 314 315 324 324 317 316 316 313 315 319 321 322 325 325 325 327 327 324 324 323 316 312 312 313 314 313 313 313 312 311 310 312 315 319 323 326 326 327 328 329 330 330 330 330 329 328 328 328 328 328 327 327 326 326 326 324 323 323 324 323 322
318 322 320 318 315 313 318 321 318 319 323 325 323 318 320 322 322 324 324 321 322 324 319 315 316 317 317 319 319 317 316 315 316 317 319 321 323 325 324 325 326 325 325 323 322 320 314 310 312 314 314 314 313 313 313 311 311 313 317 321 323 324 325 326 327 328 328 327 327 326 326 327 327 327 327 326 326 325 324 323 322 321 321 321 320 320
319 320 318 319 317 313 316 318 316 320 321 319 315 316 325 324 316 316 319 320 323 320 314 313 316 318 318 317 316 316 314 316 318 318 318 319 322 324 323 324 324 323 324 322 321 321 316 310 312 315 316 317 315 314 315 315 314 315 317 320 321 322 324 324 325 326 326 325 325 325 325 325 325 325 325 325 324 324 323 322 321 321 320 320 319 319
319 319 317 317 315 314 316 316 318 324 321 319 319 318 323 326 322 321 321 323 324 322 316 311 315 322 319 314 314 312 310 314 318 318 319 319 321 324 324 324 324 323 322 321 320 319 313 310 313 315 316 318 318 317 318 319 318 318 320 321 321 322 323 323 324 325 325 324 324 324 324 324 324 324 324 323 322 321 321 321 321 320 319 318 318 318
317 317 319 319 315 315 317 316 319 320 319 321 322 320 321 324 330 327 324 331 329 321 317 314 320 326 317 310 312 310 309 312 315 319 320 321 322 323 324 324 324 323 320 319 320 318 311 309 312 313 314 316 317 318 319 320 320 320 320 321 321 322 322 322 323 323 323 322 322 323 323 322 321 320 320 319 318 318 317 316 316 315 315 314 314 315
315 316 318 319 315 314 315 315 317 316 319 322 319 323 324 321 328 325 315 320 322 319 319 316 318 321 314 312 312 309 311 311 311 317 319 320 322 322 323 323 322 321 320 318 319 315 309 308 310 311 312 313 313 315 317 319 320 319 319 318 318 318 319 320 320 320 319 319 319 319 319 317 316 316 317 316 316 315 314 313 313 312 312 311 311 311
318 317 317 317 316 314 312 313 316 315 318 322 319 322 321 315 321 325 316 314 316 320 323 315 314 318 314 317 315 309 312 312 310 314 316 317 320 320 321 321 320 320 318 317 316 311 307 306 308 309 310 311 311 312 313 316 317 317 317 317 316 316 317 317 318 317 316 316 316 316 316 315 315 315 315 315 314 313 312 311 311 311 310 309 308 308
321 320 316 315 317 317 315 315 317 314 314 320 321 319 319 318 320 321 318 316 314 317 322 316 314 317 316 319 319 311 313 313 309 311 315 317 318 319 320 320 319 318 317 316 316 312 306 305 307 308 308 309 310 310 310 311 313 313 314 314 314 314 314 315 315 315 315 314 314 314 314 313 313 312 312 311 310 310 310 309 309 308 308 307 307 307
319 321 318 315 315 317 317 317 318 316 313 315 317 314 317 323 323 320 317 319 319 318 320 317 314 321 323 321 322 318 316 313 310 310 314 316 317 317 319 319 317 317 316 315 315 312 306 304 306 307 307 308 308 308 309 309 309 310 310 311 311 311 312 312 313 312 311 311 311 311 310 310 309 309 309 308 308 308 308 307 307 307 307 307 307 306
315 319 321 316 313 315 317 317 318 318 315 316 316 313 314 316 318 320 318 321 326 323 324 318 316 330 332 318 318 320 315 311 309 310 312 313 316 317 317 317 316 316 316 313 313 311 305 304 307 307 306 307 307 307 307 307 307 307 307 308 308 308 309 309 309 309 308 308 307 307 307 307 307 308 307 307 307 307 307 306 306 306 306 306 305 304
318 319 320 317 316 317 319 317 315 316 316 316 315 314 316 316 317 318 315 319 322 321 329 324 319 336 333 312 312 316 312 310 308 309 312 313 316 317 316 316 315 315 314 312 312 308 304 304 306 306 306 306 306 306 306 306 306 306 306 306 306 307 307 307 307 307 306 306 306 306 306 306 306 306 306 306 306 306 306 306 305 304 304 302 301 301
322 321 320 318 317 318 317 314 313 315 316 315 314 316 319 318 319 320 320 324 318 313 325 324 319 335 331 313 313 315 313 313 309 308 312 313 315 317 316 315 315 314 313 311 309 305 303 305 305 305 305 305 305 305 305 305 305 305 305 305 305 305 305 305 305 305 305 305 305 306 305 305 305 305 306 306 305 305 304 303 302 301 300 299 298 298
321 320 320 318 316 317 317 314 314 315 315 315 317 319 319 318 322 327 328 329 320 313 318 315 314 331 331 317 317 318 317 316 311 309 312 313 315 316 315 316 316 314 312 310 308 304 303 304 304 304 304 304 304 304 303 304 304 304 304 304 304 304 303 304 304 304 305 305 305 305 305 305 305 305 304 303 302 301 300 299 299 298 297 297 296 296
319 319 319 320 318 319 320 317 315 315 315 318 321 319 320 321 321 322 320 318 318 321 321 316 319 330 327 318 317 319 317 313 310 311 313 315 316 315 314 315 315 313 312 311 310 306 304 303 303 303 303 303 303 303 302 303 303 303 303 303 303 303 302 303 303 304 304 305 304 304 304 303 303 301 300 299 298 298 297 297 296 296 296 295 295 295
323 323 320 321 319 318 319 317 317 318 316 318 320 317 319 322 317 317 319 315 318 323 319 317 323 325 320 316 315 315 314 310 309 311 312 314 315 315 314 315 314 312 311 310 309 308 306 304 302 302 303 302 302 302 302 302 302 302 303 303 302 302 302 302 303 304 304 304 303 302 301 300 299 298 297 297 296 296 295 295 295 295 294 294 294 294
326 324 318 319 317 315 316 316 318 321 318 317 319 317 318 321 317 319 323 320 321 323 319 319 322 317 316 319 316 316 317 314 311 311 313 316 315 314 315 314 313 311 310 309 308 308 308 306 302 302 302 302 301 301 301 301 301 302 302 302 302 301 302 302 302 302 302 301 300 299 298 297 296 296 296 295 295 295 295 294 294 294 294 294 293 293
324 320 317 318 317 314 315 316 317 318 316 315 318 318 317 318 318 320 320 317 319 321 318 320 321 315 317 324 323 321 320 318 315 312 313 316 315 314 315 314 313 311 309 309 308 309 309 307 303 300 301 301 300 300 301 300 301 301 301 301 301 300 300 300 300 300 299 298 298 297 296 295 295 295 294 294 294 294 294 294 294 294 293 293 293 293
320 318 319 318 317 317 318 317 317 316 315 315 316 316 317 318 319 319 317 316 319 318 314 317 319 317 318 322 323 323 322 320 315 310 312 315 314 314 315 314 313 312 310 309 309 308 308 306 302 300 299 300 300 299 299 299 300 300 300 300 300 299 299 299 299 298 297 297 296 295 295 294 294 294 294 294 294 293 293 293 293 293 292 292 292 292
317 317 319 316 315 318 320 319 317 316 316 316 316 316 316 317 318 317 316 316 317 317 316 316 317 317 317 318 320 322 322 317 312 311 315 317 315 315 315 314 313 312 310 310 309 308 307 304 301 299 299 299 299 299 298 298 299 299 299 299 299 298 298 297 297 297 296 296 295 294 294 294 294 294 293 293 293 293 293 292 292 292 291 292 291 291
314 317 318 316 314 317 320 320 319 318 318 317 318 317 316 316 317 316 316 316 315 317 317 316 317 318 316 317 320 321 317 312 310 312 315 316 315 314 314 313 312 312 310 310 309 308 306 303 300 298 298 298 298 298 298 298 298 298 298 298 297 297 296 296 296 296 295 295 294 294 294 293 293 293 293 293 292 292 292 292 291 291 291 291 290 290
317 319 317 317 316 316 318 320 320 319 317 316 319 319 317 317 316 315 315 315 315 316 316 316 317 315 314 317 319 320 317 314 313 312 311 314 316 315 314 314 312 312 311 310 309 308 306 303 300 298 298 298 298 298 297 297 297 297 297 297 296 296 296 295 295 295 295 294 294 293 293 293 293 292 292 292 292 291 291 291 291 290 290 290 290 290
323 322 320 320 318 315 315 318 321 319 316 315 318 319 317 315 315 314 315 316 315 315 315 316 314 312 315 318 317 316 317 316 315 311 309 313 316 314 314 314 312 311 311 310 309 308 306 303 300 299 298 298 298 298 297 297 297 297 297 296 296 295 295 295 295 294 294 293 293 293 292 292 292 292 291 291 291 291 290 290 290 290 289 289 289 289
321 323 322 319 318 317 314 316 319 318 316 315 317 318 316 315 315 316 317 316 314 314 314 314 313 313 316 318 316 317 318 317 315 312 309 311 315 315 314 313 312 311 310 310 310 307 303 301 300 299 298 298 298 298 297 297 297 297 296 295 295 295 294 294 294 293 293 292 292 292 291 291 291 291 291 290 290 290 290 290 289 289 289 289 288 288
319 322 320 318 320 319 315 315 317 317 315 315 320 321 317 315 315 317 318 316 314 314 314 314 314 315 317 319 317 316 317 315 314 313 311 310 313 315 314 313 312 312 310 310 310 307 302 299 299 298 298 298 298 297 296 296 296 296 295 294 294 294 294 293 293 292 292 291 291 290 290 290 291 290 290 290 290 289 289 289 289 288 288 288 288 288
317 319 318 318 321 320 317 317 317 317 315 316 319 318 315 315 315 316 318 316 314 315 315 314 314 313 315 317 317 317 317 313 311 313 312 311 311 313 314 314 312 311 311 310 308 305 301 300 299 298 298 298 297 297 296 295 295 295 294 294 293 293 293 292 292 291 291 290 290 290 290 290 290 290 289 289 289 289 288 288 288 288 288 288 287 287
314 314 316 317 318 318 319 319 318 318 317 316 318 316 313 316 317 316 317 317 315 316 316 314 314 313 313 315 317 319 318 313 312 314 314 313 313 313 314 314 312 310 308 307 306 304 301 301 299 298 298 297 296 296 295 294 294 294 293 292 292 292 291 291 290 290 289 290 289 289 290 290 289 289 289 288 288 288 288 287 287 287 287 287 287 287
315 314 315 316 317 318 319 319 318 318 318 316 317 317 315 317 319 317 316 316 314 314 314 313 314 313 314 316 319 319 316 314 315 315 314 316 317 314 312 309 306 305 306 304 303 302 300 299 299 298 297 297 296 295 295 294 294 293 292 291 291 290 290 290 289 289 289 289 289 289 289 289 289 289 288 288 288 287 287 287 286 286 286 286 286 286
318 317 315 316 318 317 317 318 317 318 317 316 318 319 317 318 319 317 316 316 315 316 316 314 313 314 314 317 318 317 315 316 316 313 315 321 318 312 312 311 304 302 303 303 302 300 299 298 298 297 297 296 295 294 294 293 293 292 291 290 290 290 290 289 288 288 289 289 289 289 289 288 288 288 288 287 287 287 286 286 285 285 285 285 285 285
317 317 316 316 317 316 316 317 317 316 316 319 324 323 317 316 318 318 318 317 316 317 317 314 313 315 314 316 316 315 314 316 315 314 318 321 314 305 307 310 305 300 299 300 300 299 298 297 296 295 295 295 294 293 293 292 292 291 290 289 289 289 289 288 288 288 289 289 288 288 288 288 287 287 287 287 286 286 286 285 285 285 284 284 285 285
316 316 315 315 316 317 316 316 316 316 319 325 327 322 315 314 316 317 317 317 319 319 316 314 313 313 313 314 313 312 314 317 316 313 310 311 311 304 298 299 299 297 297 298 297 297 296 295 295 294 294 294 293 292 292 292 291 290 289 289 288 288 288 288 288 288 288 288 288 288 287 287 287 287 286 286 285 285 285 284 284 284 284 284 284 284
316 316 316 314 315 316 316 316 316 317 320 323 320 314 312 314 318 319 318 318 321 321 317 315 314 313 314 315 312 312 317 314 310 308 306 306 309 304 295 293 294 294 294 295 295 295 294 293 293 293 292 292 293 292 291 291 290 289 288 287 287 287 287 287 287 288 288 288 287 287 286 286 286 286 285 285 285 284 284 283 282 282 283 283 284 284
314 316 316 315 315 316 315 314 316 316 315 316 314 311 311 317 325 328 322 316 317 320 321 319 317 317 318 316 313 315 317 311 305 305 304 302 301 299 295 293 293 292 292 292 292 292 292 291 290 290 290 291 291 291 291 291 289 288 287 286 286 286 286 286 287 288 287 287 286 286 286 285 285 285 285 284 284 283 282 281 281 282 283 283 284 284
314 315 317 315 314 315 315 315 318 319 314 313 315 314 312 317 325 328 324 319 316 316 319 321 318 318 321 321 317 315 315 310 305 303 302 300 298 297 294 292 291 291 291 291 290 290 290 289 287 288 289 289 290 290 290 290 289 287 285 285 285 285 286 286 287 287 287 286 286 285 284 284 284 284 284 283 282 281 280 281 282 282 283 283 283 283
313 315 319 319 315 314 316 316 318 318 314 311 314 316 315 317 318 321 326 327 319 314 317 321 318 316 319 321 317 313 312 309 305 303 302 300 296 295 294 292 290 290 290 289 289 289 288 287 286 286 287 287 289 289 288 289 289 286 284 285 285 285 286 287 287 286 286 285 284 283 283 283 283 282 281 280 280 280 281 281 282 282 283 282 282 281
314 315 317 319 316 314 315 316 315 314 312 312 311 311 313 314 313 315 322 323 317 313 315 319 320 319 318 317 316 315 312 308 305 301 299 297 294 293 292 290 289 289 288 287 287 286 286 285 284 284 285 285 286 287 287 287 287 286 285 285 285 285 286 286 286 286 285 283 283 283 282 282 281 280 280 279 280 280 281 281 282 282 282 281 280 279
314 312 313 316 316 315 316 318 317 315 314 314 311 309 310 311 309 311 316 315 312 310 311 314 318 318 316 317 321 322 312 305 304 302 296 293 294 292 290 288 288 288 287 286 285 285 284 283 282 282 282 283 283 285 285 284 285 286 286 286 285 285 286 286 285 285 283 282 282 282 281 281 280 279 279 279 280 281 281 281 281 281 280 280 278 277
314 311 314 317 317 315 315 314 313 313 311 311 311 311 311 310 308 309 311 310 309 308 307 309 311 313 314 316 319 320 312 303 302 301 295 292 292 290 288 288 287 286 286 285 284 284 282 281 281 280 280 281 281 283 283 283 284 286 286 286 285 285 285 285 284 284 283 282 281 280 280 280 279 278 279 280 280 281 281 280 280 280 278 277 276 276
312 312 315 318 316 314 313 309 309 312 311 309 309 309 307 308 309 307 305 306 308 307 305 305 305 306 309 311 312 315 313 303 298 298 295 292 291 289 287 287 286 286 285 284 283 283 282 281 280 280 280 280 281 282 283 283 285 285 285 285 285 285 285 284 283 282 281 280 280 279 279 279 279 280 281 281 280 280 280 280 279 278 277 276 275 275
311 313 315 316 315 315 315 312 311 316 316 311 307 304 303 305 308 306 304 305 307 306 305 306 305 301 301 301 303 310 313 304 295 295 295 292 290 288 286 286 286 285 284 283 282 282 282 281 280 280 279 279 280 281 282 283 284 284 283 284 284 284 284 283 282 280 279 279 278 278 279 279 281 281 281 280 280 280 279 278 277 277 275 275 275 275
313 316 315 315 315 314 313 312 312 315 313 306 302 301 301 303 306 307 305 304 304 304 305 307 307 304 301 298 296 302 308 303 294 293 294 292 289 287 286 286 285 284 283 283 282 281 280 280 279 278 278 278 279 280 282 283 283 283 282 283 283 282 283 283 281 280 278 278 278 279 280 281 281 280 280 279 279 279 278 277 276 275 274 273 274 274
Wind_Speed
4 5 8 9 8 7 8 7 7 8 6 7 7 5 6 6 4 4 3 4 4 5 6 9 8 7 7 8 8 7 6 7 8 7 7 7 7 8 8 9 9 9 10 15 21 25 28 30 29 30 30 30 30 30 31 31 31 30 30 31 31 30 29 29 29 28 28 27 27 26 27 26 24 23 22 21 21 21 21 20 19 19 19 20 21 21
6 8 11 12 8 7 7 7 8 10 6 4 6 7 6 6 4 3 2 3 1 2 6 5 5 7 8 8 8 6 7 8 9 9 9 9 8 8 9 10 10 8 6 9 16 22 26 28 28 28 29 30 30 31 32 32 33 32 32 33 32 31 30 30 30 30 30 30 29 28 29 28 26 24 24 24 23 22 22 21 21 21 20 19 20 20
8 9 13 12 8 8 8 8 10 9 7 4 4 7 6 5 3 2 2 3 3 1 4 2 5 8 8 7 7 8 9 9 10 11 11 10 9 8 9 9 8 7 5 6 10 17 24 27 29 28 28 30 31 32 33 33 32 33 33 34 33 32 32 30 30 30 30 30 29 27 25 25 25 25 24 24 22 22 22 22 22 21 20 19 19 19
7 9 13 11 9 11 9 8 11 9 5 5 4 6 5 5 5 1 2 3 3 1 1 2 4 6 6 5 6 9 10 7 9 11 10 9 11 11 10 9 9 9 8 7 7 12 19 23 26 27 28 30 30 30 32 33 32 33 33 34 34 33 32 31 30 29 29 28 26 25 22 20 20 20 20 20 19 19 20 20 20 20 19 18 18 18
6 8 11 11 10 13 10 7 10 8 4 4 5 6 5 7 6 2 3 2 3 2 2 5 2 6 5 6 8 7 7 7 8 10 9 8 9 8 8 8 9 9 10 9 8 9 14 19 24 27 28 29 28 29 31 32 33 33 33 33 33 32 32 31 30 28 27 26 25 24 22 19 18 18 18 18 20 19 19 19 18 17 17 16 15 14
9 8 8 11 11 12 10 7 8 8 4 4 5 7 9 11 7 6 7 6 3 3 3 3 1 6 4 7 11 7 6 8 7 9 12 10 8 6 7 8 8 8 8 8 9 10 13 17 21 22 24 25 27 29 29 30 30 30 31 31 30 30 30 29 29 28 27 27 26 25 24 23 22 22 20 19 19 18 17 16 14 13 13 13 13 12
6 5 5 10 11 11 10 7 7 8 5 2 5 5 9 11 9 11 10 5 3 4 4 3 5 5 5 4 10 7 8 10 7 8 11 9 7 7 7 7 7 7 6 5 6 8 11 14 17 18 21 23 25 26 26 26 27 27 28 29 29 28 27 27 27 28 28 28 27 27 27 26 24 23 21 17 15 14 13 12 11 11 11 11 12 12
3 4 5 8 8 9 8 6 7 8 7 3 5 4 10 11 10 11 10 5 3 3 2 3 4 3 5 5 7 5 8 9 7 8 9 7 8 7 7 7 7 7 7 6 6 7 10 14 16 19 21 21 22 22 22 22 24 25 26 27 28 27 25 25 25 27 29 28 27 27 27 25 23 21 19 16 14 12 11 10 10 10 9 9 10 10
2 5 6 7 6 7 6 4 5 8 6 5 4 7 9 10 10 9 8 4 2 3 1 4 2 2 6 7 5 1 6 7 8 10 10 8 9 8 7 7 6 6 6 6 6 6 9 12 15 17 18 18 19 20 20 21 21 22 23 24 25 25 25 24 24 26 28 28 26 25 25 24 22 19 16 13 12 11 10 10 10 9 9 9 8 7
3 5 4 4 4 5 5 3 4 6 5 4 5 7 5 6 6 6 6 4 3 2 5 7 3 3 5 6 3 1 3 6 9 9 8 8 8 7 7 6 6 5 4 5 5 7 9 10 12 14 15 16 16 18 19 19 19 19 20 22 23 24 24 24 23 23 25 26 24 23 22 20 18 16 14 13 12 10 10 10 10 9 10 10 9 8
3 1 1 2 2 3 5 3 2 3 5 6 7 7 7 6 5 4 3 5 3 2 6 6 3 3 3 5 4 4 4 7 7 6 5 5 6 6 6 6 6 5 5 4 4 6 9 10 11 13 14 14 15 16 18 19 19 19 19 21 22 22 22 22 22 21 23 24 23 21 20 18 15 14 14 14 12 10 10 9 9 9 9 10 11 11
3 2 1 1 2 2 3 3 3 2 4 6 5 5 5 4 4 4 4 3 3 5 5 4 1 4 3 6 5 5 6 6 7 7 7 8 7 6 6 5 5 5 5 5 4 6 8 10 11 12 13 13 14 15 17 19 20 20 20 21 22 21 21 21 21 20 21 21 20 19 17 16 15 14 14 13 11 10 9 8 8 7 7 7 8 8
2 2 3 3 2 2 3 3 4 4 3 5 5 6 6 2 2 1 2 1 4 5 3 3 1 2 5 7 7 7 8 6 7 8 9 10 9 7 6 6 5 5 5 5 5 5 6 8 10 12 13 14 15 15 17 18 20 21 21 21 21 20 20 20 19 19 19 18 17 16 16 16 14 13 13 12 10 8 7 7 5 4 3 3 3 2
0 3 4 3 2 1 3 4 3 1 0 5 7 6 5 4 3 3 4 1 3 4 3 3 2 2 4 6 8 9 9 7 5 5 8 10 9 8 7 6 5 5 6 5 5 5 5 7 10 12 14 14 15 16 17 18 19 21 21 21 21 19 18 19 18 18 19 18 17 17 16 15 14 13 12 11 10 9 8 7 6 5 4 4 3 3
5 2 2 2 1 1 2 2 4 5 4 4 5 6 6 5 5 5 4 3 4 2 3 3 1 4 3 4 6 6 4 1 1 2 6 6 6 7 5 5 6 5 5 4 4 5 5 9 12 13 14 15 15 16 17 18 19 21 21 21 21 20 19 18 19 19 20 19 18 17 16 16 15 14 13 12 11 10 9 8 7 6 5 4 4 4
7 3 2 2 0 1 2 3 1 6 4 3 3 6 4 5 5 4 3 6 5 1 1 2 3 4 4 4 4 3 3 4 4 4 7 6 5 6 6 5 6 5 5 5 5 5 6 10 13 13 14 15 15 16 17 17 18 20 21 20 21 22 20 19 20 20 20 20 19 18 17 16 15 14 13 12 11 10 9 8 7 6 5 5 4 3
7 3 4 3 1 0 2 3 2 2 4 1 3 4 5 4 7 5 2 1 4 2 3 2 3 5 3 4 3 3 2 1 2 3 6 6 6 7 6 5 6 6 5 5 5 5 7 11 13 13 14 15 16 17 17 18 18 19 19 19 20 20 19 19 18 18 17 17 17 17 15 14 13 13 13 12 10 9 9 8 8 7 5 4 3 2
6 2 3 1 1 3 1 1 3 2 3 4 3 5 3 3 4 5 3 2 4 2 3 2 4 4 2 3 4 3 3 5 4 4 4 5 6 6 6 6 6 6 6 5 6 6 8 11 13 14 15 16 17 18 19 20 20 19 19 19 20 19 18 17 16 16 16 16 16 15 14 13 13 13 13 12 11 10 9 9 8 7 6 6 6 6
5 3 2 1 1 3 2 2 1 3 2 4 4 3 3 3 2 2 3 2 2 3 4 3 3 3 4 4 3 4 8 9 7 6 6 7 7 6 6 6 6 6 6 6 6 5 7 11 14 15 16 17 17 18 20 21 21 21 21 21 21 20 19 18 17 17 16 16 16 16 15 14 13 13 13 12 11 10 10 9 9 9 9 9 9 10
5 4 1 2 1 2 3 2 4 3 1 1 1 2 2 3 4 3 3 4 4 4 4 2 2 3 6 6 6 9 11 11 9 8 8 9 8 7 7 7 7 7 6 6 6 5 7 11 15 16 17 18 18 19 20 21 21 21 21 21 21 20 20 19 18 18 17 16 16 17 16 15 14 14 13 13 12 12 12 12 11 12 12 12 12 12
4 3 3 1 2 1 1 1 5 5 3 1 2 2 1 1 2 2 1 2 4 4 3 2 1 5 6 4 8 10 10 10 11 10 9 8 8 8 7 8 7 7 7 6 6 6 8 13 16 17 18 19 19 20 20 21 21 22 21 21 21 21 20 20 19 18 18 18 18 18 18 17 16 15 15 14 14 14 15 14 14 14 13 14 14 14
2 3 5 3 1 3 3 3 2 3 3 3 3 5 5 3 3 3 3 2 3 3 4 4 2 7 6 3 5 7 6 7 10 10 9 8 9 8 8 8 8 7 7 7 6 6 9 13 16 17 18 19 20 20 20 21 22 22 22 21 21 22 22 21 21 20 20 20 20 19 19 18 17 16 16 16 16 16 17 16 16 15 14 14 14 13
3 4 5 2 2 3 3 3 1 1 1 2 1 2 3 4 4 5 5 3 1 1 2 4 2 6 6 4 4 5 6 6 7 9 8 8 8 8 8 8 7 7 7 7 7 7 11 14 16 17 18 18 19 20 20 21 22 23 23 23 23 23 22 22 21 21 21 21 21 20 20 20 19 19 18 18 18 18 18 17 17 15 14 14 13 12
4 4 4 2 1 2 4 3 2 1 1 1 2 2 3 3 3 5 5 3 3 3 2 3 2 5 6 5 4 5 5 3 6 9 9 8 6 7 8 8 7 7 7 7 7 8 12 15 15 16 17 18 19 19 20 21 22 23 23 23 23 23 23 22 22 23 22 23 22 21 21 21 20 20 20 20 20 19 18 17 16 14 13 13 12 12
2 3 4 4 2 2 3 2 2 2 2 3 3 2 3 4 5 4 2 3 1 4 5 5 4 6 6 5 4 5 6 2 3 6 8 8 7 7 7 7 7 7 7 8 7 8 10 11 13 14 15 17 19 19 21 22 22 23 23 23 23 23 23 23 23 23 23 23 24 23 22 22 21 21 21 21 20 19 17 16 14 13 12 12 11 12
3 4 4 6 6 5 5 6 4 3 2 1 1 2 4 5 7 5 2 3 3 4 5 6 5 7 6 5 5 5 4 1 2 3 5 6 8 8 8 8 8 8 9 9 9 8 8 9 11 14 15 17 19 20 21 22 23 23 23 23 23 23 24 24 23 24 24 24 24 24 23 23 22 21 21 20 19 18 16 15 13 12 12 11 12 12
4 4 5 8 9 10 10 8 6 7 6 5 7 8 8 8 9 7 4 4 5 3 4 6 7 7 6 6 5 5 3 3 3 3 5 6 7 8 9 8 8 7 8 8 8 8 8 8 10 14 16 17 19 20 21 22 23 24 24 23 22 23 24 24 25 25 25 25 25 24 23 22 21 20 19 18 17 16 15 14 13 12 12 12 12 12
4 4 6 10 10 10 10 8 8 11 12 14 14 13 12 9 8 8 7 8 6 5 5 9 7 7 7 6 7 7 5 5 6 6 7 7 8 8 8 8 8 7 7 8 9 9 9 9 9 13 17 18 20 21 21 22 23 24 24 24 23 23 25 25 26 26 26 25 25 23 22 21 19 19 18 17 16 15 14 13 13 12 12 12 12 12
5 5 6 8 7 6 6 7 10 12 11 12 13 14 13 10 10 11 12 10 7 6 10 12 9 9 7 7 8 8 7 8 9 8 6 6 8 8 8 9 9 9 9 10 10 10 10 9 9 14 17 19 21 22 22 23 24 24 25 24 24 24 25 26 26 27 26 25 24 23 21 20 18 17 17 16 15 14 14 13 13 12 12 11 12 12
4 4 4 7 6 3 2 6 10 11 8 7 10 12 13 13 14 15 15 13 11 10 13 10 7 8 7 8 9 8 7 6 4 5 5 7 9 10 10 11 10 10 11 11 11 10 9 9 12 16 18 20 23 24 24 25 25 26 26 25 25 25 25 26 27 27 26 25 24 22 21 19 18 16 16 15 14 14 13 12 12 11 11 11 11 12
1 3 2 5 5 1 2 2 5 8 8 8 8 9 10 12 13 14 14 13 9 9 11 6 5 9 6 7 8 6 3 4 4 6 8 9 10 10 11 11 11 11 10 10 10 9 9 9 13 17 19 21 24 25 26 27 27 27 27 26 26 26 26 26 27 26 25 24 23 21 20 18 17 16 15 15 14 13 12 12 11 10 10 10 11 12
2 1 1 5 5 3 3 4 4 4 4 4 5 9 13 13 13 12 12 9 8 9 10 6 7 10 6 6 6 4 5 6 7 9 8 7 8 11 12 12 12 12 12 11 11 11 11 11 13 17 20 23 25 26 28 29 29 28 28 28 28 27 26 26 26 25 24 23 22 20 19 18 16 16 15 14 13 12 12 11 10 10 9 10 11 12
4 4 2 4 5 3 3 3 5 7 4 4 7 11 16 14 11 8 6 7 9 10 9 8 10 10 4 5 7 5 6 8 9 8 7 7 9 11 12 13 13 13 13 13 13 12 12 13 16 20 23 25 27 28 30 31 32 31 30 29 29 28 27 26 25 25 24 22 21 19 18 17 16 15 14 13 12 11 10 10 9 9 9 10 12 13
4 6 3 3 4 2 4 1 5 4 5 8 4 9 15 13 12 10 9 12 13 11 9 9 9 4 4 7 9 7 8 10 9 9 9 9 9 10 12 12 12 13 13 12 12 11 12 15 19 21 24 26 28 30 31 31 32 32 30 30 29 28 27 26 25 24 23 22 20 19 18 16 15 15 14 13 11 10 9 9 9 10 10 11 12 13
4 5 2 1 4 1 2 3 5 7 8 4 1 7 12 13 15 15 14 13 13 12 11 11 9 5 6 9 9 9 10 10 8 9 10 10 11 12 12 12 12 13 12 11 10 11 14 19 22 23 26 28 30 31 31 31 32 32 31 30 29 28 27 26 25 24 22 21 20 18 17 16 15 14 13 12 10 9 9 9 10 10 11 11 12 13
9 6 2 1 3 2 1 3 5 6 4 4 5 3 6 6 8 9 8 8 6 9 10 12 14 13 9 9 8 6 6 5 4 7 9 9 9 10 11 12 13 13 13 14 16 18 23 28 29 29 30 30 31 32 32 33 34 33 31 30 29 28 26 26 25 23 22 21 19 17 16 15 14 13 12 11 10 9 9 9 9 10 10 11 12 13
10 10 5 3 4 3 2 3 3 6 8 10 8 3 5 5 6 6 5 8 8 11 12 13 16 14 9 8 9 5 2 2 3 8 9 8 8 9 12 13 15 15 16 18 21 23 27 30 31 31 31 31 32 33 34 34 34 34 32 30 28 28 26 25 25 23 21 20 18 17 15 14 13 12 11 10 9 9 9 9 9 9 10 11 13 14
5 8 9 7 5 4 4 2 2 4 11 11 5 5 8 8 8 9 6 9 9 11 12 13 15 14 9 8 8 4 5 4 6 9 8 8 9 11 12 9 9 13 15 17 20 22 25 28 31 32 33 33 32 33 35 36 35 34 33 30 28 28 26 25 24 22 20 19 17 16 15 13 12 11 10 10 9 9 9 8 9 9 11 12 14 16
5 3 6 7 4 5 6 5 5 9 11 5 7 8 9 9 9 10 3 9 7 8 11 13 14 12 9 8 7 7 6 5 9 8 6 8 8 7 6 3 3 9 15 20 25 28 30 32 33 33 33 34 33 34 35 35 35 34 32 29 29 28 26 25 23 21 20 18 16 15 14 13 12 11 10 9 9 8 8 8 9 10 11 13 15 16
6 4 4 7 5 5 7 6 5 7 7 5 8 8 8 11 12 10 3 9 5 8 11 13 13 12 11 10 8 8 8 8 9 6 4 5 4 3 4 5 7 12 16 20 25 30 33 34 35 34 34 34 35 35 35 35 34 33 32 30 28 27 25 24 22 20 19 17 16 15 14 13 12 10 9 9 8 8 8 8 9 10 12 14 15 17
3 2 3 6 6 5 7 6 4 5 6 6 6 5 8 11 9 7 8 7 6 8 7 7 10 11 9 9 7 7 8 5 2 0 2 6 6 5 6 8 11 14 18 22 26 30 32 32 33 33 32 33 34 35 35 35 33 31 31 29 27 25 24 23 21 20 18 17 16 15 14 13 12 10 9 9 8 7 7 8 9 10 13 14 16 17
3 2 1 4 5 4 4 4 3 6 5 5 5 4 8 8 5 8 7 2 5 6 3 3 8 8 6 8 8 7 4 2 3 4 4 6 6 5 7 11 14 15 17 22 26 29 30 28 27 28 29 30 33 34 34 34 32 30 29 28 25 24 23 22 20 19 18 17 16 15 14 13 11 10 9 8 7 7 7 8 9 11 14 15 17 19
6 5 3 4 5 3 3 4 4 6 4 8 10 4 5 6 6 6 3 1 3 4 2 3 5 5 7 8 6 4 5 4 4 5 5 5 6 7 7 10 13 15 18 22 24 27 30 28 26 27 27 27 30 31 32 33 31 29 28 26 24 23 22 21 20 19 18 17 16 15 14 12 11 9 8 7 7 7 8 9 10 12 14 16 18 20
5 6 5 5 4 5 5 7 7 5 5 7 7 5 7 7 5 5 6 3 2 4 3 3 3 4 6 7 6 5 5 5 4 5 5 5 5 7 7 10 13 16 19 21 23 26 29 29 27 26 26 26 27 29 30 31 31 29 27 24 24 23 22 21 20 19 18 18 17 15 13 12 10 9 8 7 6 7 8 10 11 13 15 17 19 20
6 6 6 4 4 5 6 8 6 4 3 3 0 2 5 4 2 4 7 5 3 4 4 4 4 4 4 8 8 6 4 5 5 5 5 6 6 7 8 10 14 17 19 21 23 25 27 29 29 27 25 24 25 26 27 28 30 30 26 24 24 23 22 21 20 20 19 17 16 14 12 11 9 8 7 7 7 7 8 10 12 13 15 17 18 20
4 4 5 3 3 3 4 5 4 1 3 3 1 1 3 3 3 3 5 4 2 3 3 4 6 5 5 7 7 5 5 7 7 6 5 6 6 6 8 10 13 16 19 21 23 24 26 27 28 27 25 22 22 24 24 25 27 28 26 25 24 22 21 21 20 19 19 17 15 13 12 10 9 8 7 7 7 7 8 11 13 14 15 16 17 18
3 2 3 2 4 5 5 5 5 4 5 5 1 3 4 5 4 3 4 4 3 3 2 3 5 5 6 6 7 6 7 8 8 7 6 6 7 6 7 10 12 15 19 21 22 25 26 26 25 24 24 22 21 23 23 23 24 25 25 25 24 22 21 21 20 20 18 16 14 13 11 10 9 8 7 7 7 7 9 11 13 13 14 14 16 17
2 4 3 3 5 5 4 4 3 1 1 2 3 3 3 4 4 3 3 3 3 3 3 1 3 5 5 5 6 8 8 8 9 8 7 6 6 6 7 10 14 16 18 20 24 26 26 26 25 24 24 24 23 23 24 23 22 22 24 24 23 22 22 21 20 20 18 16 14 12 11 10 8 7 7 6 7 7 9 11 13 12 12 12 13 14
4 5 4 4 4 2 3 2 1 3 3 2 2 2 1 3 4 3 3 3 4 3 2 1 1 3 5 6 6 8 8 8 8 8 8 7 6 7 9 12 15 18 20 22 25 27 27 27 27 27 26 26 25 25 25 24 23 23 24 25 24 23 22 22 21 19 17 15 14 12 11 9 8 6 5 6 7 9 10 11 11 11 11 11 11 10
5 5 3 4 4 5 4 5 5 3 2 2 0 2 2 3 6 6 4 4 3 4 5 4 3 3 2 5 6 7 8 7 7 7 8 7 8 10 14 16 17 18 20 23 24 24 25 26 27 28 27 26 27 27 26 25 25 24 24 24 24 23 23 22 21 19 17 16 14 13 11 9 7 5 4 5 7 8 10 10 10 10 10 9 9 9
6 6 6 6 5 5 5 6 6 4 3 3 3 1 2 1 6 6 5 5 4 4 4 5 4 3 2 1 4 7 7 7 8 9 8 7 10 15 19 21 21 21 22 24 25 24 23 24 25 27 27 27 28 28 27 26 26 25 24 24 23 23 22 22 21 20 18 17 15 13 11 8 6 5 4 6 7 8 9 10 10 10 9 8 9 10
Wind_Direction
192 229 236 233 229 227 221 192 188 215 200 166 169 178 178 167 205 223 251 274 154 154 209 203 209 220 219 229 228 215 198 205 221 222 216 208 199 198 198 201 200 203 216 213 205 200 200 201 201 200 200 200 201 203 204 204 204 205 203 203 206 209 210 209 209 209 209 209 210 212 216 219 221 222 225 228 232 236 240 244 245 245 246 248 251 253
209 224 229 231 232 230 220 196 202 225 222 190 170 180 206 185 194 242 235 281 34 166 226 206 210 242 231 231 235 196 182 210 214 208 215 211 205 203 200 203 202 204 215 206 201 200 198 199 198 197 196 196 198 199 201 203 204 206 205 206 208 208 208 209 209 208 209 210 210 211 213 217 220 222 224 227 231 236 241 245 248 250 251 252 254 254
207 226 228 225 223 228 229 204 213 234 218 215 190 174 206 201 173 317 320 335 17 178 250 203 196 244 245 237 236 197 191 212 210 203 205 199 200 206 204 205 202 199 200 189 192 196 196 195 195 196 196 197 199 199 200 203 204 204 206 209 210 209 209 210 210 209 210 213 214 215 217 218 222 226 229 233 237 239 241 245 249 252 255 257 260 259
200 219 222 217 207 220 236 209 211 237 220 204 197 176 198 184 155 208 282 337 29 119 240 147 190 260 272 270 256 216 204 211 210 212 212 198 198 205 203 199 193 191 193 189 190 190 190 192 192 194 195 195 196 197 197 200 202 203 205 208 209 209 209 210 210 211 212 214 217 220 223 225 228 231 234 237 239 240 241 243 246 251 254 259 264 264
220 221 215 211 206 212 224 217 207 218 237 226 198 187 183 172 170 173 161 106 27 355 50 96 37 302 258 241 255 235 212 219 215 213 225 229 220 211 203 201 197 192 187 184 188 187 184 186 190 193 196 196 196 195 195 198 201 202 204 206 208 209 210 210 211 212 212 213 214 216 219 225 227 229 231 232 233 235 238 240 244 247 251 257 264 267
226 228 199 198 208 210 214 221 204 190 215 251 214 199 180 170 157 126 125 105 70 304 278 115 88 290 264 227 240 238 213 225 215 202 216 226 224 206 197 203 201 196 196 188 186 186 184 186 190 194 196 197 199 201 200 201 202 203 204 205 207 209 210 211 211 211 210 210 211 210 210 212 215 216 219 223 226 227 230 236 243 249 253 258 262 264
225 233 192 198 202 201 211 223 208 179 163 223 242 207 166 152 134 133 141 124 132 219 266 122 158 256 305 258 240 230 213 225 215 205 215 210 205 200 194 198 189 185 194 187 178 181 188 193 194 198 200 200 201 203 204 205 206 207 207 206 206 208 209 209 209 209 210 210 210 210 208 208 208 209 210 215 219 221 230 240 248 256 261 266 267 265
217 212 213 215 194 191 205 216 212 175 147 215 244 160 140 139 141 150 150 144 172 186 325 33 134 218 284 267 256 213 195 226 228 220 226 213 211 209 201 206 198 191 189 176 172 179 190 196 199 203 205 206 207 205 204 206 208 209 210 208 207 207 207 208 208 208 208 209 209 208 208 208 209 210 211 218 224 226 232 235 236 239 244 252 258 257
184 191 217 213 182 189 198 209 205 165 153 228 209 139 139 144 147 150 142 134 125 120 269 281 143 177 261 273 299 111 167 221 232 223 223 217 216 211 204 204 193 189 185 178 183 186 188 192 198 203 204 205 208 207 204 203 202 204 205 205 205 205 206 206 206 206 207 208 208 207 207 208 211 216 219 221 219 214 213 215 216 212 215 227 231 230
215 193 212 204 184 193 186 202 203 162 163 203 141 104 87 96 106 113 122 111 79 122 224 240 185 169 265 279 304 56 169 216 226 228 224 217 213 202 190 180 162 152 149 161 179 179 176 177 183 187 188 192 197 200 201 198 195 195 196 197 199 200 202 203 203 202 203 205 206 204 203 205 207 210 209 202 198 200 204 212 216 214 217 224 228 232
264 199 189 194 211 202 159 154 202 170 156 134 101 80 62 49 58 60 65 89 98 239 246 243 199 156 266 279 234 201 212 204 207 235 228 205 204 192 177 164 158 153 145 139 141 151 151 154 163 170 174 182 187 192 196 196 193 189 188 189 191 193 196 198 199 198 199 202 204 204 202 202 201 196 193 193 197 206 210 214 223 229 234 239 246 254
340 13 311 251 255 254 110 88 16 10 128 106 94 106 91 26 21 29 5 58 158 239 261 269 218 147 215 263 243 243 258 212 191 209 202 186 186 184 177 172 169 166 155 145 143 150 147 145 157 167 172 177 182 187 192 194 193 189 186 185 184 186 189 192 193 193 194 197 200 203 203 202 201 198 198 200 203 209 215 226 240 249 250 250 255 265
21 317 305 336 285 227 124 94 31 2 33 87 119 128 114 66 41 96 264 225 209 241 274 299 287 185 231 253 255 267 271 241 213 207 187 176 175 174 175 174 169 162 155 157 162 165 159 153 158 164 166 169 174 180 182 185 187 185 183 182 179 178 182 186 186 186 186 187 189 192 193 194 194 194 194 195 197 204 213 224 233 234 224 218 220 234
92 302 310 344 313 240 161 145 136 204 92 126 148 142 137 132 118 192 236 250 230 250 282 299 290 249 269 269 256 255 250 244 248 214 168 162 164 167 172 161 153 157 158 166 168 167 166 159 158 158 159 163 167 171 171 172 176 176 175 175 171 167 172 179 180 180 181 180 180 181 181 182 182 182 184 187 192 199 206 210 207 200 193 194 199 206
167 234 243 191 269 290 205 190 160 155 153 173 167 137 145 153 149 184 207 197 206 249 287 295 261 189 202 256 261 266 262 246 340 133 130 134 147 148 146 135 134 146 150 152 150 149 151 146 147 149 151 156 161 164 164 163 165 166 164 165 164 159 162 169 170 172 176 176 178 178 178 181 184 186 188 191 194 197 203 209 205 203 204 205 211 223
166 191 277 265 277 150 219 268 137 123 150 223 149 117 160 177 145 146 173 175 166 152 258 246 233 209 207 263 289 345 18 50 59 90 110 118 131 132 137 140 140 143 142 138 130 126 128 127 130 133 135 140 145 152 158 160 162 163 164 167 167 163 162 165 167 170 175 177 179 180 181 183 183 182 182 184 185 186 189 191 186 184 186 186 192 210
163 182 312 334 2 268 220 275 316 131 171 198 125 163 210 160 118 118 166 131 100 139 239 206 239 287 303 286 319 28 45 61 78 110 129 144 148 145 156 162 154 150 146 139 130 125 118 114 117 122 125 126 126 132 143 151 157 161 164 165 165 164 165 167 169 170 171 171 171 172 172 169 166 164 166 170 171 168 165 160 157 156 151 145 136 116
151 129 321 15 142 263 234 182 323 336 129 118 157 201 196 115 95 107 136 29 69 177 266 214 213 269 270 250 312 332 237 228 217 192 170 169 166 162 171 174 164 155 146 133 124 118 111 109 111 116 120 121 120 122 130 138 144 148 149 149 148 150 153 155 154 152 151 152 152 155 158 159 159 160 161 164 163 161 158 151 147 144 130 113 100 90
138 120 309 336 197 275 342 92 253 319 78 135 182 184 123 141 191 119 140 165 152 202 272 274 242 246 201 216 263 244 228 225 219 207 191 188 184 176 176 176 163 148 139 131 124 117 111 112 113 116 119 120 122 123 126 133 138 140 141 142 141 141 142 145 146 146 148 152 153 155 158 160 160 160 159 157 155 154 149 140 132 125 115 106 100 95
148 137 241 290 267 272 360 62 184 233 316 50 87 75 78 139 171 171 161 156 158 195 234 273 324 259 229 217 199 210 219 208 199 201 197 195 189 181 174 170 165 158 153 145 136 129 119 118 119 121 124 125 126 127 129 134 137 138 139 141 141 141 143 146 149 150 151 154 154 153 152 150 149 150 149 145 143 140 131 124 120 115 110 106 102 97
147 130 171 267 349 138 188 221 190 192 193 148 105 147 186 125 126 160 184 133 132 157 191 185 282 263 251 210 192 214 224 204 195 196 196 195 189 184 176 169 168 164 158 148 139 133 126 124 123 124 127 128 129 129 131 134 134 136 138 138 139 140 142 144 146 148 146 145 145 143 140 140 139 140 138 135 133 128 121 117 113 110 106 104 99 94
143 123 142 152 136 169 222 251 219 214 197 166 170 183 185 161 124 153 225 233 115 140 175 162 213 268 258 200 203 231 236 217 200 189 187 192 187 183 180 175 170 162 157 150 144 138 134 132 130 130 131 132 132 130 131 132 133 134 135 135 137 137 138 140 142 142 141 140 140 138 135 134 133 132 131 128 125 119 115 111 108 106 103 99 94 90
115 103 113 129 194 204 251 272 251 259 194 128 191 191 160 146 126 147 201 227 140 171 168 126 154 272 264 237 235 250 258 241 206 184 180 187 185 178 177 174 162 151 149 146 142 141 140 139 137 135 134 133 132 131 132 133 133 134 134 135 136 135 135 137 139 139 139 139 136 133 131 130 128 128 127 123 119 115 112 108 105 103 99 95 91 86
96 94 104 81 332 322 321 313 322 347 96 139 233 185 153 168 145 149 177 171 157 193 159 125 228 267 275 279 272 274 288 265 192 182 174 174 180 176 171 166 154 144 142 142 142 143 142 141 140 138 136 134 133 133 133 133 133 133 133 134 134 132 133 136 137 138 138 136 132 130 130 128 126 127 124 120 116 113 109 106 103 101 96 92 88 83
111 122 120 107 100 3 339 294 283 281 196 202 223 182 144 122 110 120 139 103 148 213 162 154 230 253 269 300 322 331 342 11 175 187 177 169 172 173 168 162 154 145 144 145 145 145 145 145 145 144 140 138 136 134 134 133 134 133 133 134 133 133 134 136 137 138 137 134 132 130 129 127 127 126 122 119 116 112 109 106 102 99 94 91 88 83
136 156 139 132 158 182 198 205 205 195 184 204 208 159 160 146 143 160 157 127 211 238 154 159 223 250 280 316 331 336 352 26 181 186 178 173 171 172 169 164 160 156 157 156 153 153 152 151 150 147 143 141 140 138 136 135 134 134 132 132 134 135 136 137 138 137 135 133 131 129 127 126 125 123 120 118 115 111 109 106 103 100 94 88 83 77
120 170 174 168 180 188 193 200 174 140 145 186 198 187 189 191 176 161 137 165 196 194 181 210 220 233 273 294 291 294 279 232 227 185 180 183 177 177 172 166 165 162 159 157 154 154 155 155 154 149 146 143 142 141 140 138 137 136 134 133 135 138 138 138 138 136 134 133 130 127 125 123 122 120 117 115 112 109 107 105 103 99 92 85 79 75
121 195 197 183 194 197 188 186 167 160 176 193 195 191 191 190 169 163 191 207 175 149 222 241 216 212 251 256 251 257 235 222 231 216 203 191 180 177 168 160 159 157 158 162 165 166 163 160 155 150 146 144 144 143 142 140 139 138 136 136 138 141 140 140 139 136 134 132 129 126 123 121 119 117 114 111 108 106 104 102 100 96 91 86 80 75
140 198 202 184 200 206 180 170 168 175 189 194 192 191 188 178 169 182 209 209 161 165 229 236 210 208 228 229 234 233 208 204 213 208 192 169 169 169 162 164 167 167 172 175 176 175 168 162 158 155 151 148 146 144 143 142 142 140 138 138 141 142 142 143 141 137 135 133 129 125 123 121 118 115 112 110 107 104 102 99 97 95 91 87 80 73
152 194 192 168 176 193 177 178 179 179 183 191 197 194 185 182 185 194 211 210 190 201 229 234 233 242 228 213 232 238 215 203 188 163 155 164 176 175 170 175 178 178 183 183 181 180 172 166 162 157 155 154 151 149 147 146 145 143 141 141 144 144 144 145 142 138 136 132 128 126 125 122 120 117 114 111 108 105 102 100 98 92 86 82 76 70
159 197 176 131 143 216 349 78 164 175 177 188 199 190 180 187 197 205 216 215 202 222 245 258 282 275 239 197 228 249 192 145 141 167 184 185 179 175 177 184 185 186 190 187 182 179 171 166 165 162 162 162 159 155 151 149 148 146 145 145 146 146 147 147 143 139 136 132 129 128 127 125 123 120 117 113 110 107 103 100 95 87 79 73 67 63
92 157 65 92 142 233 342 73 107 99 112 179 209 191 183 188 200 209 215 210 192 212 240 253 259 260 233 177 215 224 145 162 189 195 198 191 179 178 183 190 192 191 191 187 183 180 175 173 171 171 169 166 163 158 155 152 150 149 148 148 148 147 149 148 143 139 136 132 131 130 128 128 126 123 119 114 111 107 100 97 92 83 72 63 58 54
125 128 88 116 159 244 320 115 118 82 88 232 232 196 189 192 195 200 222 230 208 201 214 223 234 245 217 177 214 204 166 199 214 200 194 193 189 190 192 193 195 195 193 190 187 182 179 178 176 174 171 167 165 162 160 158 155 153 152 151 150 150 149 147 143 140 136 133 134 133 130 130 128 124 120 114 110 105 99 94 87 76 63 54 51 47
127 125 144 161 151 230 277 136 104 116 212 239 224 172 180 185 181 184 212 222 213 203 208 224 241 241 162 193 218 203 191 210 213 202 201 193 185 195 202 199 197 199 198 192 186 181 176 174 174 173 170 168 167 164 163 161 157 154 153 151 151 151 149 146 142 139 137 135 135 134 133 132 129 124 120 114 108 102 96 88 77 68 58 49 45 40
128 105 123 139 103 144 243 106 127 199 223 253 283 173 178 181 182 192 212 217 209 207 218 240 258 237 190 209 218 203 206 216 215 214 213 200 187 188 195 201 202 199 196 189 182 177 174 171 170 171 171 170 168 165 163 160 156 152 152 152 152 150 148 146 143 140 139 138 137 137 136 134 131 126 119 113 106 97 89 81 72 64 55 46 40 34
157 142 128 116 110 114 79 145 191 232 270 296 281 212 164 170 177 193 236 249 216 200 212 233 245 237 218 221 229 225 221 223 242 247 229 214 203 188 186 198 202 198 194 190 185 180 178 176 174 172 170 167 165 164 161 159 156 153 152 153 152 150 148 146 143 141 142 141 140 139 138 134 131 125 116 110 102 94 86 77 68 59 51 44 35 29
165 161 153 173 195 165 147 204 254 321 309 272 258 207 154 171 161 160 235 259 218 196 203 219 235 239 226 221 235 241 161 139 261 265 238 210 205 200 198 203 202 199 197 192 187 183 178 176 172 168 166 163 163 164 161 159 157 154 152 153 152 150 148 146 144 144 145 144 142 141 138 134 129 122 115 109 100 92 84 73 62 52 44 37 28 23
154 166 165 180 204 151 138 211 274 282 267 253 220 167 169 173 156 148 194 254 231 202 202 214 231 236 219 213 224 193 135 162 243 258 233 200 204 210 213 220 211 199 189 175 168 166 166 167 166 165 164 163 163 165 163 160 159 155 151 151 151 150 149 147 146 147 147 146 143 141 137 132 127 121 115 109 100 91 82 68 56 45 36 31 23 18
76 119 151 164 180 155 168 206 210 229 249 221 146 169 178 162 135 120 170 263 238 182 193 212 227 230 208 200 198 151 139 202 237 247 225 198 203 207 202 203 160 165 169 165 163 162 162 164 164 163 163 164 164 166 165 162 160 155 150 151 153 152 151 150 150 151 150 147 143 140 136 131 127 122 116 110 99 90 80 62 51 41 30 25 20 14
76 84 144 174 188 170 180 207 217 236 251 192 168 191 176 147 122 113 203 260 219 171 193 202 213 224 208 190 177 160 177 215 233 247 221 168 146 100 130 146 138 144 152 158 162 162 160 161 160 161 165 167 167 167 165 162 159 155 152 153 154 153 153 153 153 152 150 146 143 140 136 133 130 125 118 110 98 87 74 55 44 36 27 20 16 11
90 115 161 185 190 173 179 206 244 258 242 206 197 191 148 128 120 153 213 238 200 199 217 193 201 222 206 176 175 186 202 216 208 192 96 115 107 78 92 117 127 137 146 151 156 157 156 159 162 163 166 168 166 165 165 163 159 155 154 155 154 153 154 155 155 154 150 146 144 142 139 137 135 128 119 108 94 79 65 52 41 31 24 17 12 9
158 145 151 178 177 166 171 188 259 271 238 164 142 161 150 139 166 210 217 206 183 207 234 183 199 209 177 175 194 195 185 126 92 93 82 98 113 107 103 111 115 123 136 145 151 154 153 154 158 159 161 164 165 166 167 164 158 155 154 154 154 155 157 157 156 154 150 147 145 145 144 142 137 128 118 104 89 72 58 50 41 30 23 17 10 7
165 155 179 193 173 145 152 177 222 258 228 128 114 134 188 188 203 207 183 116 180 192 154 150 190 186 167 179 191 157 128 110 97 96 92 100 116 121 128 132 130 133 139 143 150 156 154 151 152 155 158 162 165 167 168 165 159 155 155 155 155 158 159 157 156 154 150 149 149 148 147 142 133 123 112 97 84 71 57 48 40 28 20 15 10 7
180 171 183 207 189 153 171 200 211 217 187 141 129 165 198 200 197 166 145 141 192 196 159 131 167 194 175 159 147 135 132 129 125 122 120 126 135 137 140 141 140 142 145 148 153 157 155 151 150 152 155 160 165 169 171 169 162 156 155 156 158 160 159 157 157 155 154 153 152 149 144 135 125 119 108 94 78 66 54 44 35 25 19 15 12 11
212 195 174 185 194 175 188 211 218 214 195 180 200 204 178 161 129 145 142 136 174 200 175 143 160 196 161 134 132 138 145 152 160 158 151 152 158 156 150 148 149 149 148 149 153 157 157 154 152 151 153 159 165 169 173 174 167 158 155 158 160 161 160 159 158 157 156 155 151 145 138 131 125 117 104 90 74 58 47 38 31 24 20 18 17 16
241 193 150 150 203 237 241 210 173 173 238 226 294 352 126 92 63 110 113 103 149 185 165 150 161 169 149 134 131 141 166 167 164 166 165 161 160 154 146 147 149 149 149 150 153 157 157 153 152 152 152 155 163 168 172 174 169 161 159 161 162 161 160 160 159 158 156 153 148 142 138 134 128 117 104 91 75 57 42 35 32 27 23 22 22 21
287 175 144 151 182 208 241 211 165 175 214 203 140 50 65 58 39 72 100 118 151 145 128 147 151 147 151 147 140 149 169 167 160 165 169 162 162 162 154 151 151 152 154 155 155 157 156 152 152 153 152 153 160 166 168 169 168 164 162 161 161 161 161 161 161 159 157 152 147 145 144 140 133 122 109 93 76 61 46 39 36 32 31 30 27 25
213 160 169 195 185 187 232 243 222 231 194 138 102 92 99 79 51 58 89 116 121 97 72 65 125 142 160 165 150 149 162 172 170 169 170 167 164 163 160 157 156 155 157 159 160 161 159 157 156 157 156 156 160 165 167 167 167 166 164 163 164 164 164 165 163 160 157 154 151 149 149 147 139 127 110 87 69 56 46 41 40 41 44 41 32 25
144 159 178 175 179 233 288 271 354 29 33 40 34 30 149 151 134 118 105 100 99 108 117 93 109 159 173 176 160 147 159 181 182 165 163 168 166 164 166 163 160 159 160 163 166 166 165 163 163 162 160 161 164 167 168 169 169 169 168 167 167 168 168 167 164 160 157 157 157 155 155 151 143 129 108 82 65 53 45 43 47 58 62 52 40 35
147 169 168 144 179 232 230 185 159 130 168 217 326 5 310 178 142 131 130 130 143 178 171 125 58 34 121 163 166 156 160 178 180 164 163 171 171 170 168 164 163 164 165 166 168 170 170 169 168 166 164 164 167 170 171 172 172 171 171 170 170 171 172 169 165 162 161 162 163 161 159 156 147 130 101 76 64 59 56 54 58 68 71 57 48 54
178 183 173 162 188 224 212 179 161 135 134 161 156 66 323 157 130 126 139 160 179 196 151 105 70 23 18 127 175 170 165 168 168 164 165 175 178 176 173 171 169 168 169 169 169 170 172 172 171 169 167 167 170 173 174 175 174 172 173 173 172 173 175 172 168 166 166 167 168 165 162 158 149 130 99 73 60 53 55 60 67 74 73 61 58 62